User: anonymous
Location: Dover
(39.1580°N, 75.5250°W)
Time: 15:07:29
(UTC-04:00)
Language:

Cosmos 1437 Rocket - Orbit

View from above orbital plane
View from above orbital plane
View from above satellite
View from above satellite

Ground track
Ground track

The orbit data is extracted from the following two-line orbital elements,

1 13771U 83003B   14244.06659262  .00002613  00000-0  17367-3 0  1096
2 13771 081.1551 097.3043 0031151 138.5722 221.7872 15.06461334719972
Epoch (UTC): 01 September 2014 01:35:53
Eccentricity: 0.0031151
inclination: 81.1551°
perigee height: 525 km
apogee height: 568 km
right ascension of ascending node: 97.3043°
argument of perigee: 138.5722°
revolutions per day: 15.06461334
mean anomaly at epoch: 221.7872°
orbit number at epoch: 71997

The dashed part of the orbit path shows where the satellite is in the earth's shadow,  

DLR